Weather History for Defiance, OH

Change the Weather History Date:

Monday, July 15, 2013

  Actual Average Record
Temperature  
Mean Temperature 81 °F -  
Max Temperature 91 °F 86 °F 98 °F (1954)
Min Temperature 71 °F 61 °F 49 °F (1939)
Cooling Degree Days 16    
Growing Degree Days 31 (Base 50)    
Moisture  
Dew Point 71 °F    
Average Humidity 73    
Maximum Humidity 94    
Minimum Humidity 50    
Precipitation  
Precipitation 0.00 in - - ()
Sea Level Pressure  
Sea Level Pressure 30.27 in    
Wind  
Wind Speed 2 mph (SSW)    
Max Wind Speed 7 mph    
Max Gust Speed -    
Visibility 8 miles    
Events Rain    
Averages and records for this station are not official NWS values.
T = Trace of Precipitation, MM = Missing Value Source: NWS Daily Summary

Daily Weather History Graph

Daily Weather History Graph

Search for Another Location

Airport:

Trip Planner

Search our weather history database for the weather conditions in past years. The results will help you decide how hot, cold, wet, or windy it might be!

Date:

Astronomy

Jul. 15, 2013 Rise Set
Actual Time 6:17 AM EDT 9:09 PM EDT
Civil Twilight 5:44 AM EDT 9:42 PM EDT
Nautical Twilight 5:03 AM EDT 10:23 PM EDT
Astronomical Twilight 4:15 AM EDT 11:10 PM EDT
Moon 1:41 PM EDT (7/15) 12:16 AM EDT (7/15)
Length of Visible Light 15h 57m
Length of Day
14h 51m
Waxing Crescent, 45% of the Moon is Illuminated
Jul 15
Waxing Crescent
Jul 15
First Quarter
Jul 22
Full
Jul 29
Last Quarter
Aug 6
New

Hourly Weather History & Observations

Time (EDT) Temp. Heat Index Dew Point Humidity Pressure Visibility Wind Dir Wind Speed Gust Speed Precip Events Conditions
12:53 AM 75.9 °F - 70.0 °F 82% 30.24 in 10.0 mi East 4.6 mph - N/A   Partly Cloudy
1:53 AM 75.0 °F - 69.1 °F 82% 30.24 in 10.0 mi East 3.5 mph - N/A   Scattered Clouds
2:53 AM 73.9 °F - 69.1 °F 85% 30.24 in 10.0 mi Calm Calm - N/A   Partly Cloudy
3:53 AM 73.0 °F - 69.1 °F 87% 30.24 in 8.0 mi Calm Calm - N/A   Partly Cloudy
4:53 AM 72.0 °F - 69.1 °F 91% 30.25 in 6.0 mi Calm Calm - N/A   Clear
5:53 AM 71.1 °F - 68.0 °F 90% 30.26 in 5.0 mi Calm Calm - N/A   Clear
6:30 AM 71.6 °F - 69.8 °F 94% 30.28 in 2.0 mi Calm Calm - N/A   Clear
6:39 AM 71.6 °F - 69.8 °F 94% 30.28 in 1.8 mi Calm Calm - N/A   Clear
6:51 AM 71.6 °F - 69.8 °F 94% 30.29 in 2.5 mi Calm Calm - N/A   Clear
6:53 AM 73.0 °F - 70.0 °F 90% 30.27 in 2.5 mi Calm Calm - N/A   Clear
7:09 AM 73.4 °F - 69.8 °F 88% 30.29 in 3.0 mi Calm Calm - N/A   Clear
7:53 AM 77.0 °F - 71.1 °F 82% 30.28 in 10.0 mi South 3.5 mph - N/A   Clear
8:53 AM 81.0 °F 85.2 °F 72.0 °F 74% 30.29 in 10.0 mi SW 3.5 mph - N/A   Clear
9:53 AM 84.0 °F 89.6 °F 72.0 °F 67% 30.30 in 10.0 mi SW 5.8 mph - N/A   Scattered Clouds
10:53 AM 87.1 °F 95.4 °F 73.9 °F 65% 30.30 in 10.0 mi NW 5.8 mph - N/A   Scattered Clouds
11:53 AM 87.1 °F 92.8 °F 71.1 °F 59% 30.30 in 10.0 mi NW 5.8 mph - N/A   Mostly Cloudy
12:53 PM 88.0 °F 93.8 °F 71.1 °F 57% 30.29 in 10.0 mi Calm Calm - N/A   Mostly Cloudy
1:53 PM 88.0 °F 92.1 °F 69.1 °F 53% 30.28 in 10.0 mi SSW 5.8 mph - N/A   Mostly Cloudy
2:53 PM 90.0 °F 95.4 °F 70.0 °F 52% 30.27 in 10.0 mi South 6.9 mph - N/A   Scattered Clouds
3:53 PM 90.0 °F 96.4 °F 71.1 °F 54% 30.26 in 10.0 mi Variable 6.9 mph - N/A   Partly Cloudy
4:53 PM 91.0 °F 96.6 °F 70.0 °F 50% 30.25 in 10.0 mi Variable 6.9 mph - N/A   Clear
5:53 PM 90.0 °F 94.5 °F 69.1 °F 50% 30.24 in 10.0 mi South 5.8 mph - N/A   Clear
6:53 PM 90.0 °F 95.4 °F 70.0 °F 52% 30.23 in 10.0 mi South 4.6 mph - N/A   Clear
7:53 PM 88.0 °F 93.8 °F 71.1 °F 57% 30.24 in 10.0 mi Calm Calm - N/A   Clear
8:53 PM 84.0 °F 89.6 °F 72.0 °F 67% 30.23 in 10.0 mi Calm Calm - N/A   Partly Cloudy
9:53 PM 81.0 °F 85.8 °F 73.0 °F 77% 30.26 in 10.0 mi Calm Calm - 0.00 in Rain Light Rain
10:53 PM 78.1 °F - 73.0 °F 84% 30.27 in 10.0 mi Calm Calm - 0.00 in   Clear
11:53 PM 79.0 °F - 72.0 °F 79% 30.28 in 10.0 mi Calm Calm - N/A   Clear